Home > Weather > Newark > Past weeks

Flag for U.S.A. Weather for the Past 2 Weeks in Newark, New Jersey, U.S.A.

Now
30 °F

Passing clouds.


Feels Like: 25 °F
Forecast: 25 / 44 °F
Wind: 5 mph from West

Location: Newark International Airport

Current Time: Feb 7, 2016 at 4:34:57 AM

Latest Report: Feb 7, 2016 at 3:51 AM


Visibility: 10 mi

Pressure: 30.22 "Hg

Humidity: 75%

Dew point: 23 °F

Location of NewarkLocation

Historic Weather in Newark — Graph

°F

Newark Temperature Yesterday

Maximum temperature yesterday: 40 °F (at 2:51 PM)
Minimum temperature yesterday: 27 °F (at 5:51 AM)
Average temperature yesterday: 34 °F

High & Low Weather Summary for the Past Weeks

 TemperatureHumidityPressure
High58 °F (Feb 3, 2:51 PM)100% (Jan 23, 11:59 AM)30.44 "Hg (Jan 23, 11:59 AM)
Low18 °F (Jan 24, 4:51 AM)37% (Jan 27, 3:51 PM)29.40 "Hg (Jan 24, 3:51 AM)
Average38 °F66%30.01 "Hg
* Reported Jan 23 2:57 AM — Feb 7 2:51 AM, Newark, Weather by CustomWeather, © 2016

Note: Actual official high and low records may vary slightly from our data, if they occured in-between our weather recording intervals... More about our weather records

Advertising

Newark Weather History for the Previous 24 Hours

 ConditionsComfort  
Time TempWeatherWind HumidityBarometerVisibility
2:51 AM
Sun, Feb 7
31 °FPassing clouds.No wind69%30.24 "Hg10 mi
1:51 AM30 °FPassing clouds.3 mph72%30.23 "Hg10 mi
12:51 AM32 °FPassing clouds.6 mph66%30.24 "Hg10 mi
11:51 PM
Sat, Feb 6
33 °FPassing clouds.8 mph66%30.27 "Hg10 mi
10:51 PM34 °FPassing clouds.8 mph64%30.29 "Hg10 mi
9:51 PM33 °FPassing clouds.7 mph66%30.29 "Hg10 mi
8:51 PM34 °FPassing clouds.6 mph64%30.29 "Hg10 mi
7:51 PM37 °FPassing clouds.5 mph57%30.29 "Hg10 mi
6:51 PM37 °FPassing clouds.9 mph57%30.29 "Hg10 mi
5:51 PM38 °FPassing clouds.7 mph51%30.29 "Hg10 mi
4:51 PM39 °FPartly sunny.12 mph50%30.29 "Hg10 mi
3:51 PM40 °FBroken clouds.13 mph49%30.29 "Hg10 mi
2:51 PM40 °FBroken clouds.13 mph45%30.31 "Hg10 mi
1:51 PM39 °FPartly sunny.9 mph50%30.32 "Hg10 mi
12:51 PM39 °FPartly sunny.8 mph50%30.35 "Hg10 mi
11:51 AM38 °FPartly sunny.9 mph53%30.39 "Hg10 mi
10:51 AM36 °FPartly sunny.8 mph57%30.42 "Hg10 mi
9:51 AM36 °FPartly sunny.8 mph52%30.43 "Hg10 mi
8:51 AM31 °FPartly sunny.5 mph64%30.44 "Hg10 mi
7:51 AM28 °FPartly sunny.No wind69%30.43 "Hg10 mi
6:51 AM27 °FPassing clouds.5 mph69%30.42 "Hg10 mi
5:51 AM27 °FPassing clouds.3 mph69%30.40 "Hg10 mi
4:51 AM28 °FPassing clouds.5 mph64%30.39 "Hg10 mi
Weather by CustomWeather, © 2016

See weather overviewHow to use our weather pages